DSN-3 (KIRAMEKI-3)

Last updated on Mon Oct 20 2025 00:02:51 GMT+0000 (Coordinated Universal Time)

1 61733U 24198A 25292.24072450 .00000000 00000+0 00000+0 0 9996 2 61733 0.0208 220.7129 0001069 331.4695 66.5048 1.00268577 3505
UTC large
Height (km)
Speed (km/s)
/
Latitude / Longitude
Inclination (degrees)
Orbital Period (minutes)
Azimuth
Elevation
Range (km)
Doppler Factor

Next 0 passes for location: London (51.5072 / 0.1276)

Sorry there are no passes over London.